Showing default

COSMOS 2546, 45608

Orbit data source: Space-Track

COSMOS 2546, 45608 is a payload satellite owned by VVKO VKS (CIS) that was launched on Fri, 22 May 2020 UTC via a SOYUZ-2-1B launch vehicle from the Plesetsk Missile And Space Complex (PKMTR). Payload-class satellites include a variety of spacecraft equipped with specific instruments for various scientific and technological missions. These include communications satellites like Starlink; space stations such as the ISS; scientific satellites like the Hubble; Earth observation satellites from companies like Planet Labs, Umbra, and HawkEye 360; GPS; miniature CubeSats for education and research; and military/defense satellites.

Loading next visibility...
Identifier
45608, 2020-031A
Orbit
Molniya
Country
Flag of CISCIS
Related business
Manufacturer
RKKE/KOMET
Mission
Operational Defense Early Warn
Bus & Motor
14F142 EKS, Unknown motor
Mass
2,550 kg wet, ~2,000 kg dry
Launch date (UTC)
2020-05-22 (6 years ago)
Launch vehicle
SOYUZ-2-1B
Launch site
Plesetsk Missile And Space Complex (PKMTR)
Object type
Payload
Rocket body
Debris
Shape & HBR
Box + 2 Pan, Unknown HBR
Radar Cross Section
14.304 m², Large (>1 m²)

Expand to show TLE details & history
Last TLE update: 1 day ago

TLE from 1 day ago
0 COSMOS 2546
1 45608U 20031A   26124.65287080 -.00000123  00000-0  00000-0 0  9997
2 45608  63.1549  72.2088 7065167 266.0839  17.9063  2.00617829 43598
Epoch: 2026-05-04T15:40Z
TLE epoch observation values (Epoch: 2026-05-04T15:40:08.037Z)
Latitude
-0.00013°
Longitude
-25.40631°
Altitude
7,644.763 km
Speed
6.469 km/s
True Right ascension
04h 48m 39s
True Declination
0° 00' 00"
Sunlit
Object was in daylight at epoch
Visualization orbit readout
Latitude
Unknown
Longitude
Unknown
Altitude
Unknown
Speed
Unknown
Apparent Right ascension
Unknown
Apparent Declination
Unknown
Sunlit
N/A
Visualization observer readout
Local Sidereal Time
07:01:47
Azimuth
Unknown
Elevation
Unknown
Doppler factor
Unknown
Orbital elements
Apogee altitude
38,937.85 km
Perigee altitude
1,415.215 km
Semi-major axis
26,554.67 km
Eccentricity
0.70652
Inclination
63.1549°
RAAN
72.2088°
Arg. of periapsis
266.0839°
True anomaly
94.03843°
Mean anomaly
17.9063°
Eccentric anomaly
47.97936°
Mean motion
0.50157 °/min
Orbital period
717.75 mins
BSTAR
0
Loading maneuver chart data...
Computing Atmospheric mass density...
Loading historical data...
Loading historical data...
Loading historical data...
Loading historical data...
Loading historical data...
Loading historical data...
Loading historical data...
Other satellites on launch #31 in the year 2020 (2020-05-22 UTC)

Documentation

Showing up to 5 results
|